[[{"header":{"parameterUnit":"m.s-1","parameterCategory":1,"la1":30.2991,"la2":30.254,"lo1":-89.0895,"lo2":-89.0444,"dy":0.0017,"dx":0.0017,"nx":28,"ny":28,"refTime":"2024-12-05T09:00:00:Z","depth":0,"parameterNumber":2,"parameterNumberName":"U-component_of_WINDS"},"data":[0,0,0,0,0,0,0,0,0,0,0,0,0,0,0,0,0,0,0,0,0,0,0,0,0,0,0,0,0,0,0,0,0,0,0,0,0,0,0,0,0,0,0,0,0,0,0,0,0,0,0,0,0,0,0,0,0,0,-0.3934,-0.3931,0,-0.3673,-0.367,-0.3667,-0.3563,-0.3564,-0.3564,-0.3565,-0.3293,-0.3285,-0.3277,0,0,0,0,0,0,0,0,0,0,0,0,0,-0.4336,-0.433,-0.3934,-0.3931,-0.3928,-0.3674,-0.367,-0.3666,-0.3563,-0.3564,-0.3564,-0.3565,-0.3295,-0.3286,-0.3277,0,0,0,0,0,0,0,0,0,0,0,0,0,-0.4127,-0.4327,-0.3935,-0.3845,-0.3835,-0.3674,-0.367,-0.3665,-0.3563,-0.3564,-0.3565,-0.3566,-0.3298,-0.3287,-0.3275,-0.3183,0,0,-0.3239,-0.3234,0,0,0,0,0,0,0,0,-0.4139,-0.4113,-0.3862,-0.3851,-0.3839,-0.3652,-0.3712,-0.3503,-0.3562,-0.3666,-0.3565,-0.3566,-0.3411,-0.339,-0.3339,-0.317,-0.3158,-0.3238,-0.3231,-0.3226,-0.3223,0,0,0,0,0,0,0,-0.4154,-0.4123,-0.3831,-0.3858,-0.3844,-0.3816,-0.3788,-0.3672,-0.3536,-0.3657,-0.3649,-0.3619,-0.3405,-0.335,-0.3332,-0.3154,-0.3239,-0.3228,-0.3221,-0.3216,-0.2893,-0.2892,0,0,0,0,0,0,-0.4184,-0.4136,-0.3839,-0.3823,-0.3995,-0.3808,-0.3776,-0.3711,-0.3537,-0.3511,-0.3619,-0.3616,-0.337,-0.3345,-0.3322,-0.32,-0.3226,-0.3215,-0.3208,-0.2895,-0.2893,-0.2891,0,0,0,0,0,0,-0.4193,-0.4158,-0.3849,-0.3977,-0.3936,-0.38,-0.3728,-0.3705,-0.365,-0.3508,-0.3483,-0.3589,-0.337,-0.3338,-0.3218,-0.3189,-0.321,-0.3199,-0.2896,-0.2894,-0.2892,-0.2957,0,0,0,0,0,0,-0.4205,-0.4162,-0.4127,-0.3977,-0.3929,-0.3752,-0.3726,-0.3699,-0.3631,-0.3624,-0.3473,-0.3449,-0.3368,-0.3236,-0.3206,-0.3173,-0.319,-0.2898,-0.2895,-0.2893,-0.2957,-0.2957,-0.2958,0,0,0,0,0,-0.422,-0.4156,-0.4126,-0.4091,-0.3883,-0.3751,-0.3723,-0.3633,-0.3629,-0.3592,-0.35,-0.3454,-0.3197,-0.3224,-0.319,-0.3153,-0.29,-0.2896,-0.2893,-0.2956,-0.2957,-0.2958,0,0,0,0,0,0,-0.4305,-0.4134,-0.41,-0.3986,-0.3884,-0.3733,-0.3683,-0.3637,-0.3532,-0.353,-0.3421,-0.3388,-0.3276,-0.3202,-0.3236,-0.3053,-0.3045,-0.3034,-0.3105,-0.3104,-0.3105,-0.3124,-0.318,0,0,0,0,0,-0.4311,-0.4219,-0.4074,-0.3987,-0.3938,-0.382,-0.3759,-0.3698,-0.3587,-0.3543,-0.3443,-0.3336,-0.323,-0.3163,-0.3059,-0.2946,-0.291,-0.2903,-0.2904,-0.2905,-0.2896,-0.2828,-0.2823,-0.288,-0.288,-0.288,0,0,-0.4321,-0.4216,-0.4165,-0.4002,-0.3915,-0.3821,-0.3784,-0.3686,-0.3614,-0.3528,-0.3408,-0.333,-0.3203,-0.3086,-0.3029,-0.3021,-0.2873,-0.29,-0.2902,-0.2893,-0.2824,-0.2819,-0.2814,-0.2878,-0.2878,-0.2879,0,0,-0.4291,-0.4204,-0.4121,-0.4035,-0.3905,-0.3827,-0.3807,-0.3664,-0.3609,-0.3488,-0.342,-0.3332,-0.3154,-0.3065,-0.2997,-0.2932,-0.2885,-0.2901,-0.2903,-0.2838,-0.2833,-0.2829,-0.2803,-0.2796,-0.2894,-0.2894,-0.2894,0,-0.4319,-0.4176,-0.4084,-0.3989,-0.3918,-0.3836,-0.375,-0.3671,-0.3513,-0.3465,-0.3459,-0.3232,-0.3141,-0.3,-0.2985,-0.2933,-0.2905,-0.2917,-0.2842,-0.2836,-0.283,-0.2805,-0.2796,-0.2897,-0.2896,-0.2896,-0.2896,0,-0.4217,-0.4118,-0.4066,-0.3917,-0.384,-0.3751,-0.3642,-0.3575,-0.3521,-0.3443,-0.3318,-0.3206,-0.3076,-0.3038,-0.2984,-0.2889,-0.2888,-0.2863,-0.2853,-0.2829,-0.2803,-0.2793,-0.29,-0.2899,-0.2899,-0.2898,0,0,-0.4233,-0.4033,-0.4016,-0.3946,-0.3796,-0.3717,-0.3623,-0.3497,-0.3441,-0.3335,-0.325,-0.3101,-0.3077,-0.3,-0.2934,-0.2878,-0.2831,-0.2859,-0.2854,-0.2856,-0.2716,-0.2734,-0.2725,-0.2799,-0.2797,-0.2795,-0.2726,0,-0.4181,-0.401,-0.3923,-0.3788,-0.3694,-0.3615,-0.3532,-0.343,-0.3354,-0.3262,-0.3177,-0.3072,-0.305,-0.3002,-0.2942,-0.285,-0.2801,-0.2853,-0.2717,-0.2713,-0.275,-0.2711,-0.273,-0.2671,-0.2715,-0.2713,-0.2712,0,-0.4099,-0.3994,-0.3851,-0.371,-0.3667,-0.3595,-0.3471,-0.3385,-0.3267,-0.3215,-0.3129,-0.3065,-0.2959,-0.2958,-0.2809,-0.2847,-0.2786,-0.2732,-0.2727,-0.2709,-0.2711,-0.2691,-0.265,-0.264,-0.2696,-0.2697,-0.2698,0,-0.4122,-0.3946,-0.3836,-0.3779,-0.3613,-0.3564,-0.3492,-0.3375,-0.3304,-0.3196,-0.3149,-0.303,-0.2964,-0.2872,-0.2776,-0.2784,-0.2636,-0.2627,-0.2588,-0.259,-0.2559,-0.2562,-0.2506,-0.2523,-0.2523,-0.2524,-0.2524,0,-0.4073,-0.3988,-0.3844,-0.3777,-0.3678,-0.3578,-0.3482,-0.3404,-0.33,-0.3214,-0.3138,-0.3059,-0.2938,-0.2843,-0.2768,-0.2655,-0.2626,-0.2579,-0.256,-0.2585,-0.2591,-0.2542,-0.2543,-0.2521,-0.2522,-0.2522,-0.2522,0,-0.4082,-0.3983,-0.3858,-0.3712,-0.3672,-0.3606,-0.3479,-0.3409,-0.3329,-0.3221,-0.319,-0.3064,-0.2948,-0.2844,-0.269,-0.2639,-0.2522,-0.2499,-0.2563,-0.2552,-0.2518,-0.2522,-0.2427,-0.2408,-0.2441,-0.2441,-0.2441,0,-0.4057,-0.3989,-0.3835,-0.3773,-0.3703,-0.3604,-0.3531,-0.343,-0.3357,-0.3216,-0.3163,-0.3042,-0.2939,-0.2756,-0.2649,-0.253,-0.2502,-0.2477,-0.2484,-0.251,-0.2499,-0.2504,-0.2495,-0.2478,-0.2478,-0.2478,-0.2478,0,-0.4021,-0.3975,-0.3875,-0.3757,-0.3673,-0.3575,-0.3474,-0.3427,-0.3306,-0.3227,-0.3109,-0.3029,-0.2872,-0.2751,-0.262,-0.2543,-0.2489,-0.2477,-0.2461,-0.2485,-0.2524,-0.25,-0.2563,-0.2479,-0.2479,-0.2479,-0.2479,-0.2479,-0.4009,-0.3945,-0.3826,-0.3717,-0.363,-0.3538,-0.3465,-0.3376,-0.3275,-0.314,-0.3086,-0.2964,-0.2845,-0.2663,-0.2587,-0.2488,-0.2478,-0.2456,-0.245,-0.2445,-0.2449,-0.2542,-0.2464,-0.2464,-0.2464,-0.2464,-0.2464,0,-0.3968,-0.3888,-0.3788,-0.365,-0.3563,-0.3522,-0.3408,-0.3337,-0.3232,-0.3126,-0.3027,-0.2889,-0.2771,-0.2655,-0.253,-0.2474,-0.2446,-0.2444,-0.2446,-0.2429,-0.2466,-0.2491,-0.2469,-0.2469,-0.2469,-0.2469,-0.2469,-0.2469,-0.3936,-0.3824,-0.3764,-0.3607,-0.3526,-0.3408,-0.3346,-0.3259,-0.3174,-0.3024,-0.2927,-0.2853,-0.2741,-0.2608,-0.2497,-0.2466,-0.2422,-0.2427,-0.2389,-0.2426,-0.2427,-0.2427,-0.245,-0.2419,-0.2419,-0.2359,-0.2359,-0.2358]},{"header":{"parameterUnit":"m.s-1","parameterCategory":1,"la1":30.2991,"la2":30.254,"lo1":-89.0895,"lo2":-89.0444,"dy":0.0017,"dx":0.0017,"nx":28,"ny":28,"refTime":"2024-12-05T09:00:00:Z","depth":0,"parameterNumber":3,"parameterNumberName":"V-component_of_WINDS"},"data":[0,0,0,0,0,0,0,0,0,0,0,0,0,0,0,0,0,0,0,0,0,0,0,0,0,0,0,0,0,0,0,0,0,0,0,0,0,0,0,0,0,0,0,0,0,0,0,0,0,0,0,0,0,0,0,0,0,0,0.4845,0.4846,0,0.5011,0.5013,0.5014,0.4992,0.499,0.4987,0.4984,0.5161,0.5168,0.5175,0,0,0,0,0,0,0,0,0,0,0,0,0,0.4513,0.4519,0.4844,0.4846,0.4849,0.501,0.5013,0.5015,0.4993,0.4989,0.4986,0.4983,0.5158,0.5167,0.5175,0,0,0,0,0,0,0,0,0,0,0,0,0,0.4666,0.4521,0.4844,0.4857,0.486,0.501,0.5013,0.5016,0.4994,0.4989,0.4985,0.4981,0.5155,0.5166,0.5177,0.5327,0,0,0.521,0.5215,0,0,0,0,0,0,0,0,0.4657,0.4678,0.4853,0.4856,0.486,0.4976,0.496,0.512,0.4995,0.4943,0.4984,0.4979,0.5103,0.5118,0.5158,0.5335,0.5343,0.5211,0.5218,0.5222,0.5225,0,0,0,0,0,0,0,0.4647,0.4671,0.491,0.4855,0.486,0.4856,0.4873,0.4991,0.5044,0.4947,0.4946,0.4965,0.5104,0.5148,0.5162,0.5345,0.5211,0.522,0.5227,0.5231,0.5655,0.5659,0,0,0,0,0,0,0.4632,0.4662,0.4905,0.4915,0.4746,0.4865,0.4884,0.4943,0.5043,0.5054,0.4969,0.4964,0.5131,0.515,0.5169,0.5353,0.5222,0.5232,0.5239,0.565,0.5656,0.5661,0,0,0,0,0,0,0.4625,0.4654,0.4898,0.4788,0.4819,0.4875,0.4942,0.4949,0.4993,0.5059,0.5069,0.5004,0.5129,0.5153,0.5287,0.5359,0.5237,0.5247,0.5644,0.5652,0.5658,0.5721,0,0,0,0,0,0,0.4615,0.4651,0.4708,0.479,0.4825,0.5013,0.4946,0.4955,0.5011,0.5006,0.5095,0.5105,0.5128,0.5271,0.5298,0.5371,0.5256,0.5638,0.5648,0.5656,0.5713,0.5729,0.5743,0,0,0,0,0,0.4604,0.472,0.4711,0.474,0.4897,0.5017,0.5038,0.5059,0.5016,0.5075,0.5117,0.5103,0.5345,0.5285,0.5315,0.5393,0.5634,0.5645,0.5655,0.5706,0.5726,0.5743,0,0,0,0,0,0,0.4648,0.4731,0.4722,0.4868,0.4935,0.5013,0.5088,0.508,0.5162,0.5155,0.5179,0.5199,0.5336,0.5377,0.5309,0.5544,0.5484,0.5501,0.5513,0.5532,0.5547,0.5536,0.5265,0,0,0,0,0,0.4674,0.4763,0.4832,0.4954,0.4988,0.5032,0.5085,0.5095,0.5167,0.5197,0.5249,0.5321,0.5414,0.5474,0.5563,0.5717,0.5738,0.5785,0.58,0.5813,0.5829,0.5915,0.5938,0.5695,0.5695,0.5695,0,0,0.4731,0.4787,0.4842,0.4964,0.5018,0.5112,0.5056,0.5158,0.5229,0.5213,0.5343,0.5384,0.5466,0.5611,0.5677,0.565,0.5899,0.5826,0.5835,0.5845,0.5929,0.5952,0.5972,0.5703,0.5701,0.57,0,0,0.4882,0.4932,0.504,0.5094,0.5175,0.5203,0.5229,0.5308,0.5334,0.5464,0.5454,0.5539,0.5697,0.5756,0.5807,0.5978,0.5969,0.6006,0.6088,0.6172,0.6191,0.6208,0.6273,0.6295,0.6021,0.6021,0.6021,0,0.4943,0.5082,0.5097,0.52,0.5255,0.5241,0.5353,0.5405,0.5512,0.5551,0.5517,0.5715,0.5769,0.5929,0.5971,0.6011,0.6044,0.5999,0.6187,0.6204,0.622,0.6282,0.6306,0.6026,0.6025,0.6025,0.6024,0,0.5154,0.525,0.5328,0.5429,0.5492,0.5599,0.5632,0.5695,0.5698,0.573,0.5864,0.5928,0.603,0.6067,0.6073,0.6229,0.6209,0.618,0.6122,0.6248,0.6306,0.633,0.6032,0.603,0.6029,0.6028,0,0,0.5342,0.5448,0.5477,0.5523,0.561,0.5686,0.5791,0.5889,0.5943,0.6016,0.6108,0.6241,0.6215,0.6272,0.6284,0.6357,0.6492,0.632,0.6323,0.6353,0.6671,0.6695,0.6722,0.6484,0.6489,0.6492,0.6665,0,0.5504,0.569,0.5706,0.5874,0.5965,0.5952,0.6044,0.6109,0.6141,0.6224,0.6259,0.6355,0.6311,0.6347,0.6418,0.6461,0.6557,0.6448,0.6573,0.6577,0.6557,0.6752,0.6778,0.6938,0.6688,0.6692,0.6695,0,0.572,0.5797,0.5974,0.6048,0.6086,0.6169,0.626,0.6338,0.6411,0.6429,0.6493,0.6494,0.6605,0.6538,0.6693,0.6618,0.667,0.6698,0.6705,0.6721,0.6647,0.6777,0.699,0.7015,0.673,0.6727,0.6725,0,0.5844,0.5992,0.6117,0.6156,0.6245,0.6304,0.6344,0.6412,0.647,0.6549,0.6587,0.6679,0.673,0.6802,0.6829,0.6777,0.6984,0.6918,0.7005,0.7005,0.7053,0.7051,0.7281,0.7079,0.7079,0.7078,0.7078,0,0.6026,0.6136,0.6174,0.6251,0.6374,0.6391,0.6512,0.6549,0.661,0.6696,0.6689,0.677,0.6799,0.6885,0.6906,0.7033,0.7055,0.7075,0.7081,0.7079,0.7077,0.7117,0.7108,0.7085,0.7083,0.7082,0.7081,0,0.6188,0.6217,0.6353,0.6424,0.6445,0.6532,0.6595,0.6671,0.6699,0.6808,0.6835,0.6882,0.6983,0.7015,0.7138,0.7152,0.7301,0.7295,0.7277,0.7279,0.7365,0.7358,0.7632,0.7671,0.7439,0.7441,0.7443,0,0.6305,0.6388,0.6468,0.6524,0.6565,0.6656,0.6714,0.6733,0.6794,0.6883,0.6949,0.7048,0.7129,0.7292,0.7338,0.7432,0.743,0.752,0.7445,0.7441,0.7437,0.7433,0.7443,0.7536,0.7538,0.754,0.7542,0,0.651,0.652,0.6603,0.6691,0.6759,0.683,0.6899,0.6945,0.6975,0.7044,0.7146,0.7209,0.7333,0.7433,0.7528,0.7571,0.7564,0.7564,0.759,0.7591,0.7579,0.759,0.732,0.7559,0.7557,0.7556,0.7555,0.7554,0.6656,0.673,0.6797,0.689,0.6942,0.7006,0.7081,0.7118,0.7203,0.7304,0.731,0.7422,0.7492,0.7619,0.7667,0.7756,0.7731,0.7767,0.7777,0.7787,0.7795,0.756,0.7772,0.7772,0.7772,0.7771,0.7771,0,0.6864,0.6906,0.6991,0.7085,0.7159,0.7139,0.7214,0.7277,0.7375,0.744,0.7519,0.7637,0.7733,0.7786,0.7883,0.7944,0.7943,0.7969,0.7967,0.7978,0.7811,0.778,0.7968,0.7968,0.7968,0.7968,0.7968,0.7968,0.6982,0.7107,0.7124,0.7276,0.7317,0.7424,0.7469,0.7528,0.758,0.7712,0.7791,0.7823,0.7884,0.7985,0.8073,0.8086,0.8124,0.8154,0.8166,0.8009,0.7989,0.797,0.7942,0.8161,0.8162,0.8326,0.8328,0.8329]}]]